Kosmos-1751

operational
NORAD ID: 16761 Int'l Des: 1986-042 Owner: UNKS Country: SU
LEOCIRCULAR

关于 Kosmos-1751

正在加载描述...

实时位置

正在加载3D地球...

即将过境

高度历史

Altitude vs Time

uPlot chart will show altitude changes over time

两行轨道根数

1 16761U 86042D 25277.82629786 .00000029 00000-0 31217-3 0 9990
2 16761 74.0153 123.1609 0023675 122.0541 250.1025 12.44888903787388
Epoch: Oct 4, 2025 • Age: 10 hours

当前状态

高度 1472.9 km
速度 7.14 km/s
星下点 22.43°N, 172.05°W
发射日期 Jun 6, 1986
运行时间 39.3 years
类型 other

技术详情

分类 Payload
质量 60.00 kg
干质量 60.00 kg
总质量 60.00 kg
长度 0.80 m
直径 0.80 m
跨度 0.80 m
形状 Poly
制造商 NPOPM
平台类型 Strela-1 11F625
阶段状态 In Orbit
所有者/国家 UNKS/SU

大型星座

Loading constellations...